User: anonymous   Login
Location: Unspecified
(0.0000°N, 0.0000°E)
Time: 13:43:05
(UTC+00:00)
Language:

TISAT 1 - Orbit

View from above orbital plane
View from above orbital plane
View from above satellite
View from above satellite

Ground track
Ground track

The orbit data is extracted from the following two-line orbital elements,

1 36799U 10035E   17114.90301207 +.00001295 +00000-0 +13905-3 0  9997
2 36799 098.0539 236.5767 0013518 138.0169 222.2087 14.90333772367640
Epoch (UTC): 24 April 2017 21:40:20
Eccentricity: 0.0013518
inclination: 98.0539°
perigee height: 587 km
apogee height: 606 km
right ascension of ascending node: 236.5767°
argument of perigee: 138.0169°
revolutions per day: 14.90333772
mean anomaly at epoch: 222.2087°
orbit number at epoch: 36764

The dashed part of the orbit path shows where the satellite is in the earth's shadow,  

DLR